RADUGA 14 [-]

Last updated on Tue Jun 27 2023 00:03:02 GMT+0000 (Coordinated Universal Time)

1 14725U 84016A 23176.97601971 -.00000002 00000+0 00000+0 0 9998 2 14725 10.6824 318.7831 0006597 145.9184 226.5475 1.00255234107182

Satellite not in orbit

RADUGA 14 [-]